owner,sensor,date,latitude,longitude,vertical_datum,sea_water_practical_salinity,qcFlag 
NERRS,ioos:station:NOAA.NERRS:gndpcwq:1,2016-05-01T00:45:00Z,30.3486,-88.4185,1.65,8.4,1111122 
NERRS,ioos:station:NOAA.NERRS:gndpcwq:1,2016-05-01T01:45:00Z,30.3486,-88.4185,1.69,8.2,1111122 
NERRS,ioos:station:NOAA.NERRS:gndpcwq:1,2016-05-01T02:45:00Z,30.3486,-88.4185,1.63,8.0,1111122 
NERRS,ioos:station:NOAA.NERRS:gndpcwq:1,2016-05-01T03:45:00Z,30.3486,-88.4185,1.54,8.4,1111122 
NERRS,ioos:station:NOAA.NERRS:gndpcwq:1,2016-05-01T04:45:00Z,30.3486,-88.4185,1.6,8.3,1111122 
NERRS,ioos:station:NOAA.NERRS:gndpcwq:1,2016-05-01T05:45:00Z,30.3486,-88.4185,1.61,8.0,1111122 
NERRS,ioos:station:NOAA.NERRS:gndpcwq:1,2016-05-01T06:45:00Z,30.3486,-88.4185,1.56,7.9,1111122 
NERRS,ioos:station:NOAA.NERRS:gndpcwq:1,2016-05-01T07:45:00Z,30.3486,-88.4185,1.52,7.9,1111122 
NERRS,ioos:station:NOAA.NERRS:gndpcwq:1,2016-05-01T08:45:00Z,30.3486,-88.4185,1.51,7.9,1111122 
NERRS,ioos:station:NOAA.NERRS:gndpcwq:1,2016-05-01T09:45:00Z,30.3486,-88.4185,1.57,7.9,1111122 
NERRS,ioos:station:NOAA.NERRS:gndpcwq:1,2016-05-01T10:45:00Z,30.3486,-88.4185,1.6,7.9,1111122 
NERRS,ioos:station:NOAA.NERRS:gndpcwq:1,2016-05-01T11:45:00Z,30.3486,-88.4185,1.63,7.9,1111122 
NERRS,ioos:station:NOAA.NERRS:gndpcwq:1,2016-05-01T12:45:00Z,30.3486,-88.4185,1.68,8.0,1111122 
NERRS,ioos:station:NOAA.NERRS:gndpcwq:1,2016-05-01T13:45:00Z,30.3486,-88.4185,1.75,8.1,1111122 
NERRS,ioos:station:NOAA.NERRS:gndpcwq:1,2016-05-01T14:45:00Z,30.3486,-88.4185,1.75,8.1,1111122 
NERRS,ioos:station:NOAA.NERRS:gndpcwq:1,2016-05-01T15:45:00Z,30.3486,-88.4185,1.74,8.1,1111122 
NERRS,ioos:station:NOAA.NERRS:gndpcwq:1,2016-05-01T16:45:00Z,30.3486,-88.4185,1.74,8.1,1111122 
NERRS,ioos:station:NOAA.NERRS:gndpcwq:1,2016-05-01T17:45:00Z,30.3486,-88.4185,1.78,8.0,1111122 
NERRS,ioos:station:NOAA.NERRS:gndpcwq:1,2016-05-01T18:45:00Z,30.3486,-88.4185,1.79,8.1,1111122 
NERRS,ioos:station:NOAA.NERRS:gndpcwq:1,2016-05-01T19:45:00Z,30.3486,-88.4185,1.81,8.2,1111122 
NERRS,ioos:station:NOAA.NERRS:gndpcwq:1,2016-05-01T20:45:00Z,30.3486,-88.4185,1.8,8.1,1111122 
NERRS,ioos:station:NOAA.NERRS:gndpcwq:1,2016-05-01T21:45:00Z,30.3486,-88.4185,1.73,8.1,1111122 
NERRS,ioos:station:NOAA.NERRS:gndpcwq:1,2016-05-01T22:45:00Z,30.3486,-88.4185,1.73,8.1,1111122 
NERRS,ioos:station:NOAA.NERRS:gndpcwq:1,2016-05-01T23:45:00Z,30.3486,-88.4185,1.75,8.0,1111122 
NERRS,ioos:station:NOAA.NERRS:gndpcwq:1,2016-05-02T00:45:00Z,30.3486,-88.4185,1.87,7.9,1111122 
NERRS,ioos:station:NOAA.NERRS:gndpcwq:1,2016-05-02T01:45:00Z,30.3486,-88.4185,1.97,7.8,1111122 
NERRS,ioos:station:NOAA.NERRS:gndpcwq:1,2016-05-02T02:45:00Z,30.3486,-88.4185,1.89,7.9,1111122 
NERRS,ioos:station:NOAA.NERRS:gndpcwq:1,2016-05-02T03:45:00Z,30.3486,-88.4185,1.73,7.8,1111122 
NERRS,ioos:station:NOAA.NERRS:gndpcwq:1,2016-05-02T04:45:00Z,30.3486,-88.4185,1.74,7.7,1111122 
NERRS,ioos:station:NOAA.NERRS:gndpcwq:1,2016-05-02T05:45:00Z,30.3486,-88.4185,1.72,7.7,1111122 
NERRS,ioos:station:NOAA.NERRS:gndpcwq:1,2016-05-02T06:45:00Z,30.3486,-88.4185,1.68,7.6,1111122 
NERRS,ioos:station:NOAA.NERRS:gndpcwq:1,2016-05-02T07:45:00Z,30.3486,-88.4185,1.69,7.6,1111122 
NERRS,ioos:station:NOAA.NERRS:gndpcwq:1,2016-05-02T08:45:00Z,30.3486,-88.4185,1.61,7.7,1111122 
NERRS,ioos:station:NOAA.NERRS:gndpcwq:1,2016-05-02T09:45:00Z,30.3486,-88.4185,1.6,7.6,1111122 
NERRS,ioos:station:NOAA.NERRS:gndpcwq:1,2016-05-02T10:45:00Z,30.3486,-88.4185,1.63,7.6,1111122 
NERRS,ioos:station:NOAA.NERRS:gndpcwq:1,2016-05-02T11:45:00Z,30.3486,-88.4185,1.64,7.7,1111122 
NERRS,ioos:station:NOAA.NERRS:gndpcwq:1,2016-05-02T12:45:00Z,30.3486,-88.4185,1.71,7.7,1111122 
NERRS,ioos:station:NOAA.NERRS:gndpcwq:1,2016-05-02T13:45:00Z,30.3486,-88.4185,1.75,7.7,1111122 
NERRS,ioos:station:NOAA.NERRS:gndpcwq:1,2016-05-02T14:45:00Z,30.3486,-88.4185,1.76,7.8,1111122 
NERRS,ioos:station:NOAA.NERRS:gndpcwq:1,2016-05-02T15:45:00Z,30.3486,-88.4185,1.75,7.7,1111122 
NERRS,ioos:station:NOAA.NERRS:gndpcwq:1,2016-05-02T16:45:00Z,30.3486,-88.4185,1.71,7.7,1111122 
NERRS,ioos:station:NOAA.NERRS:gndpcwq:1,2016-05-02T17:45:00Z,30.3486,-88.4185,1.7,7.6,1111122 
NERRS,ioos:station:NOAA.NERRS:gndpcwq:1,2016-05-02T18:45:00Z,30.3486,-88.4185,1.7,7.6,1111122 
NERRS,ioos:station:NOAA.NERRS:gndpcwq:1,2016-05-02T19:45:00Z,30.3486,-88.4185,1.7,7.6,1111122 
NERRS,ioos:station:NOAA.NERRS:gndpcwq:1,2016-05-02T20:45:00Z,30.3486,-88.4185,1.71,7.5,1111122 
NERRS,ioos:station:NOAA.NERRS:gndpcwq:1,2016-05-02T21:45:00Z,30.3486,-88.4185,1.72,7.5,1111122 
NERRS,ioos:station:NOAA.NERRS:gndpcwq:1,2016-05-02T22:45:00Z,30.3486,-88.4185,1.69,7.5,1111122 
NERRS,ioos:station:NOAA.NERRS:gndpcwq:1,2016-05-02T23:45:00Z,30.3486,-88.4185,1.67,7.4,1111122 
NERRS,ioos:station:NOAA.NERRS:gndpcwq:1,2016-05-03T00:45:00Z,30.3486,-88.4185,1.68,7.4,1111122 
NERRS,ioos:station:NOAA.NERRS:gndpcwq:1,2016-05-03T01:45:00Z,30.3486,-88.4185,1.71,7.4,1111122 
NERRS,ioos:station:NOAA.NERRS:gndpcwq:1,2016-05-03T02:45:00Z,30.3486,-88.4185,1.71,7.4,1111122 
NERRS,ioos:station:NOAA.NERRS:gndpcwq:1,2016-05-03T03:45:00Z,30.3486,-88.4185,1.64,7.4,1111122 
NERRS,ioos:station:NOAA.NERRS:gndpcwq:1,2016-05-03T04:45:00Z,30.3486,-88.4185,1.6,7.4,1111122 
NERRS,ioos:station:NOAA.NERRS:gndpcwq:1,2016-05-03T05:45:00Z,30.3486,-88.4185,1.55,7.4,1111122 
NERRS,ioos:station:NOAA.NERRS:gndpcwq:1,2016-05-03T06:45:00Z,30.3486,-88.4185,1.57,7.4,1111122 
NERRS,ioos:station:NOAA.NERRS:gndpcwq:1,2016-05-03T07:45:00Z,30.3486,-88.4185,1.58,7.4,1111122 
NERRS,ioos:station:NOAA.NERRS:gndpcwq:1,2016-05-03T08:45:00Z,30.3486,-88.4185,1.59,7.4,1111122 
NERRS,ioos:station:NOAA.NERRS:gndpcwq:1,2016-05-03T09:45:00Z,30.3486,-88.4185,1.59,7.4,1111122 
NERRS,ioos:station:NOAA.NERRS:gndpcwq:1,2016-05-03T10:45:00Z,30.3486,-88.4185,1.61,7.5,1111122 
NERRS,ioos:station:NOAA.NERRS:gndpcwq:1,2016-05-03T11:45:00Z,30.3486,-88.4185,1.62,7.5,1111122 
NERRS,ioos:station:NOAA.NERRS:gndpcwq:1,2016-05-03T12:45:00Z,30.3486,-88.4185,1.63,7.5,1111122 
NERRS,ioos:station:NOAA.NERRS:gndpcwq:1,2016-05-03T13:45:00Z,30.3486,-88.4185,1.67,7.5,1111122 
NERRS,ioos:station:NOAA.NERRS:gndpcwq:1,2016-05-03T14:45:00Z,30.3486,-88.4185,1.68,7.5,1111122 
NERRS,ioos:station:NOAA.NERRS:gndpcwq:1,2016-05-03T15:45:00Z,30.3486,-88.4185,1.66,7.4,1111122 
NERRS,ioos:station:NOAA.NERRS:gndpcwq:1,2016-05-03T16:45:00Z,30.3486,-88.4185,1.62,7.4,1111122 
NERRS,ioos:station:NOAA.NERRS:gndpcwq:1,2016-05-03T17:45:00Z,30.3486,-88.4185,1.57,7.4,1111122 
NERRS,ioos:station:NOAA.NERRS:gndpcwq:1,2016-05-03T18:45:00Z,30.3486,-88.4185,1.56,7.4,1111122 
NERRS,ioos:station:NOAA.NERRS:gndpcwq:1,2016-05-03T19:45:00Z,30.3486,-88.4185,1.55,7.5,1111122 
NERRS,ioos:station:NOAA.NERRS:gndpcwq:1,2016-05-03T20:45:00Z,30.3486,-88.4185,1.55,8.0,1111122 
NERRS,ioos:station:NOAA.NERRS:gndpcwq:1,2016-05-03T21:45:00Z,30.3486,-88.4185,1.56,8.4,1111122 
NERRS,ioos:station:NOAA.NERRS:gndpcwq:1,2016-05-03T22:45:00Z,30.3486,-88.4185,1.56,8.5,1111122 
NERRS,ioos:station:NOAA.NERRS:gndpcwq:1,2016-05-03T23:45:00Z,30.3486,-88.4185,1.58,8.7,1111122 
NERRS,ioos:station:NOAA.NERRS:gndpcwq:1,2016-05-04T00:45:00Z,30.3486,-88.4185,1.56,8.9,1111122 
NERRS,ioos:station:NOAA.NERRS:gndpcwq:1,2016-05-04T01:45:00Z,30.3486,-88.4185,1.6,9.8,1111122 
NERRS,ioos:station:NOAA.NERRS:gndpcwq:1,2016-05-04T02:45:00Z,30.3486,-88.4185,1.59,10.5,1111122 
NERRS,ioos:station:NOAA.NERRS:gndpcwq:1,2016-05-04T03:45:00Z,30.3486,-88.4185,1.59,10.9,1111122 
NERRS,ioos:station:NOAA.NERRS:gndpcwq:1,2016-05-04T04:45:00Z,30.3486,-88.4185,1.58,11.0,1111122 
NERRS,ioos:station:NOAA.NERRS:gndpcwq:1,2016-05-04T05:45:00Z,30.3486,-88.4185,1.52,10.8,1111122 
NERRS,ioos:station:NOAA.NERRS:gndpcwq:1,2016-05-04T06:45:00Z,30.3486,-88.4185,1.44,10.5,1111122 
NERRS,ioos:station:NOAA.NERRS:gndpcwq:1,2016-05-04T07:45:00Z,30.3486,-88.4185,1.42,9.7,1111122 
NERRS,ioos:station:NOAA.NERRS:gndpcwq:1,2016-05-04T08:45:00Z,30.3486,-88.4185,1.43,9.5,1111122 
NERRS,ioos:station:NOAA.NERRS:gndpcwq:1,2016-05-04T09:45:00Z,30.3486,-88.4185,1.44,9.5,1111122 
NERRS,ioos:station:NOAA.NERRS:gndpcwq:1,2016-05-04T10:45:00Z,30.3486,-88.4185,1.47,9.2,1111122 
NERRS,ioos:station:NOAA.NERRS:gndpcwq:1,2016-05-04T11:45:00Z,30.3486,-88.4185,1.52,9.0,1111122 
NERRS,ioos:station:NOAA.NERRS:gndpcwq:1,2016-05-04T12:45:00Z,30.3486,-88.4185,1.59,9.0,1111122 
NERRS,ioos:station:NOAA.NERRS:gndpcwq:1,2016-05-04T13:45:00Z,30.3486,-88.4185,1.62,9.3,1111122 
NERRS,ioos:station:NOAA.NERRS:gndpcwq:1,2016-05-04T14:45:00Z,30.3486,-88.4185,1.63,9.4,1111122 
NERRS,ioos:station:NOAA.NERRS:gndpcwq:1,2016-05-04T15:45:00Z,30.3486,-88.4185,1.63,9.7,1111122 
NERRS,ioos:station:NOAA.NERRS:gndpcwq:1,2016-05-04T16:45:00Z,30.3486,-88.4185,1.56,10.0,1111122 
NERRS,ioos:station:NOAA.NERRS:gndpcwq:1,2016-05-04T17:45:00Z,30.3486,-88.4185,1.5,10.4,1111122 
NERRS,ioos:station:NOAA.NERRS:gndpcwq:1,2016-05-04T18:45:00Z,30.3486,-88.4185,1.43,10.7,1111122 
NERRS,ioos:station:NOAA.NERRS:gndpcwq:1,2016-05-04T19:45:00Z,30.3486,-88.4185,1.4,10.7,1111122 
NERRS,ioos:station:NOAA.NERRS:gndpcwq:1,2016-05-04T20:45:00Z,30.3486,-88.4185,1.37,10.7,1111122 
NERRS,ioos:station:NOAA.NERRS:gndpcwq:1,2016-05-04T21:45:00Z,30.3486,-88.4185,1.39,11.0,1111122 
NERRS,ioos:station:NOAA.NERRS:gndpcwq:1,2016-05-04T22:45:00Z,30.3486,-88.4185,1.38,11.4,1111122 
NERRS,ioos:station:NOAA.NERRS:gndpcwq:1,2016-05-04T23:45:00Z,30.3486,-88.4185,1.41,11.4,1111122 
NERRS,ioos:station:NOAA.NERRS:gndpcwq:1,2016-05-05T00:45:00Z,30.3486,-88.4185,1.43,12.0,1111122 
NERRS,ioos:station:NOAA.NERRS:gndpcwq:1,2016-05-05T01:45:00Z,30.3486,-88.4185,1.44,12.7,1111122 
NERRS,ioos:station:NOAA.NERRS:gndpcwq:1,2016-05-05T02:45:00Z,30.3486,-88.4185,1.45,12.9,1111122 
NERRS,ioos:station:NOAA.NERRS:gndpcwq:1,2016-05-05T03:45:00Z,30.3486,-88.4185,1.48,12.9,1111122 
NERRS,ioos:station:NOAA.NERRS:gndpcwq:1,2016-05-05T04:45:00Z,30.3486,-88.4185,1.52,13.0,1111122 
NERRS,ioos:station:NOAA.NERRS:gndpcwq:1,2016-05-05T05:45:00Z,30.3486,-88.4185,1.52,12.9,1111122 
NERRS,ioos:station:NOAA.NERRS:gndpcwq:1,2016-05-05T06:45:00Z,30.3486,-88.4185,1.49,12.8,1111122 
NERRS,ioos:station:NOAA.NERRS:gndpcwq:1,2016-05-05T07:45:00Z,30.3486,-88.4185,1.46,12.8,1111122 
NERRS,ioos:station:NOAA.NERRS:gndpcwq:1,2016-05-05T08:45:00Z,30.3486,-88.4185,1.47,12.8,1111122 
NERRS,ioos:station:NOAA.NERRS:gndpcwq:1,2016-05-05T09:45:00Z,30.3486,-88.4185,1.49,12.7,1111122 
NERRS,ioos:station:NOAA.NERRS:gndpcwq:1,2016-05-05T10:45:00Z,30.3486,-88.4185,1.51,12.7,1111122 
NERRS,ioos:station:NOAA.NERRS:gndpcwq:1,2016-05-05T11:45:00Z,30.3486,-88.4185,1.52,12.8,1111122 
NERRS,ioos:station:NOAA.NERRS:gndpcwq:1,2016-05-05T12:45:00Z,30.3486,-88.4185,1.53,12.9,1111122 
NERRS,ioos:station:NOAA.NERRS:gndpcwq:1,2016-05-05T13:45:00Z,30.3486,-88.4185,1.55,12.9,1111122 
NERRS,ioos:station:NOAA.NERRS:gndpcwq:1,2016-05-05T14:45:00Z,30.3486,-88.4185,1.57,13.0,1111122 
NERRS,ioos:station:NOAA.NERRS:gndpcwq:1,2016-05-05T15:45:00Z,30.3486,-88.4185,1.59,13.0,1111122 
NERRS,ioos:station:NOAA.NERRS:gndpcwq:1,2016-05-05T16:45:00Z,30.3486,-88.4185,1.55,13.0,1111122 
NERRS,ioos:station:NOAA.NERRS:gndpcwq:1,2016-05-05T17:45:00Z,30.3486,-88.4185,1.45,13.2,1111122 
NERRS,ioos:station:NOAA.NERRS:gndpcwq:1,2016-05-05T18:45:00Z,30.3486,-88.4185,1.38,13.3,1111122 
NERRS,ioos:station:NOAA.NERRS:gndpcwq:1,2016-05-05T19:45:00Z,30.3486,-88.4185,1.29,13.3,1111122 
NERRS,ioos:station:NOAA.NERRS:gndpcwq:1,2016-05-05T20:45:00Z,30.3486,-88.4185,1.23,13.6,1111122 
NERRS,ioos:station:NOAA.NERRS:gndpcwq:1,2016-05-05T21:45:00Z,30.3486,-88.4185,1.21,13.8,1111122 
NERRS,ioos:station:NOAA.NERRS:gndpcwq:1,2016-05-05T22:45:00Z,30.3486,-88.4185,1.19,14.0,1111122 
NERRS,ioos:station:NOAA.NERRS:gndpcwq:1,2016-05-05T23:45:00Z,30.3486,-88.4185,1.21,14.1,1111122 
NERRS,ioos:station:NOAA.NERRS:gndpcwq:1,2016-05-06T00:45:00Z,30.3486,-88.4185,1.23,14.0,1111122 
NERRS,ioos:station:NOAA.NERRS:gndpcwq:1,2016-05-06T01:45:00Z,30.3486,-88.4185,1.23,14.2,1111122 
NERRS,ioos:station:NOAA.NERRS:gndpcwq:1,2016-05-06T02:45:00Z,30.3486,-88.4185,1.25,14.2,1111122 
NERRS,ioos:station:NOAA.NERRS:gndpcwq:1,2016-05-06T03:45:00Z,30.3486,-88.4185,1.3,14.1,1111122 
NERRS,ioos:station:NOAA.NERRS:gndpcwq:1,2016-05-06T04:45:00Z,30.3486,-88.4185,1.35,14.1,1111122 
NERRS,ioos:station:NOAA.NERRS:gndpcwq:1,2016-05-06T05:45:00Z,30.3486,-88.4185,1.4,14.2,1111122 
NERRS,ioos:station:NOAA.NERRS:gndpcwq:1,2016-05-06T06:45:00Z,30.3486,-88.4185,1.41,14.3,1111122 
NERRS,ioos:station:NOAA.NERRS:gndpcwq:1,2016-05-06T07:45:00Z,30.3486,-88.4185,1.42,14.3,1111122 
NERRS,ioos:station:NOAA.NERRS:gndpcwq:1,2016-05-06T08:45:00Z,30.3486,-88.4185,1.45,14.2,1111122 
NERRS,ioos:station:NOAA.NERRS:gndpcwq:1,2016-05-06T09:45:00Z,30.3486,-88.4185,1.52,14.3,1111122 
NERRS,ioos:station:NOAA.NERRS:gndpcwq:1,2016-05-06T10:45:00Z,30.3486,-88.4185,1.6,14.4,1111122 
NERRS,ioos:station:NOAA.NERRS:gndpcwq:1,2016-05-06T11:45:00Z,30.3486,-88.4185,1.68,14.5,1111122 
NERRS,ioos:station:NOAA.NERRS:gndpcwq:1,2016-05-06T12:45:00Z,30.3486,-88.4185,1.72,14.4,1111122 
NERRS,ioos:station:NOAA.NERRS:gndpcwq:1,2016-05-06T13:45:00Z,30.3486,-88.4185,1.74,14.5,1111122 
NERRS,ioos:station:NOAA.NERRS:gndpcwq:1,2016-05-06T14:45:00Z,30.3486,-88.4185,1.74,14.6,1111122 
NERRS,ioos:station:NOAA.NERRS:gndpcwq:1,2016-05-06T15:45:00Z,30.3486,-88.4185,1.7,14.5,1111122 
NERRS,ioos:station:NOAA.NERRS:gndpcwq:1,2016-05-06T16:45:00Z,30.3486,-88.4185,1.65,14.6,1111122 
NERRS,ioos:station:NOAA.NERRS:gndpcwq:1,2016-05-06T17:45:00Z,30.3486,-88.4185,1.58,15.0,1111122 
NERRS,ioos:station:NOAA.NERRS:gndpcwq:1,2016-05-06T18:45:00Z,30.3486,-88.4185,1.5,15.2,1111122 
NERRS,ioos:station:NOAA.NERRS:gndpcwq:1,2016-05-06T19:45:00Z,30.3486,-88.4185,1.4,15.2,1111122 
NERRS,ioos:station:NOAA.NERRS:gndpcwq:1,2016-05-06T20:45:00Z,30.3486,-88.4185,1.29,15.0,1111122 
NERRS,ioos:station:NOAA.NERRS:gndpcwq:1,2016-05-06T21:45:00Z,30.3486,-88.4185,1.2,14.6,1111122 
NERRS,ioos:station:NOAA.NERRS:gndpcwq:1,2016-05-06T22:45:00Z,30.3486,-88.4185,1.16,14.6,1111122 
NERRS,ioos:station:NOAA.NERRS:gndpcwq:1,2016-05-06T23:45:00Z,30.3486,-88.4185,1.15,15.2,1111122 
NERRS,ioos:station:NOAA.NERRS:gndpcwq:1,2016-05-07T00:45:00Z,30.3486,-88.4185,1.17,15.4,1111122 
NERRS,ioos:station:NOAA.NERRS:gndpcwq:1,2016-05-07T01:45:00Z,30.3486,-88.4185,1.17,15.5,1111122 
NERRS,ioos:station:NOAA.NERRS:gndpcwq:1,2016-05-07T02:45:00Z,30.3486,-88.4185,1.2,15.5,1111122 
NERRS,ioos:station:NOAA.NERRS:gndpcwq:1,2016-05-07T03:45:00Z,30.3486,-88.4185,1.25,15.4,1111122 
NERRS,ioos:station:NOAA.NERRS:gndpcwq:1,2016-05-07T04:45:00Z,30.3486,-88.4185,1.31,15.4,1111122 
NERRS,ioos:station:NOAA.NERRS:gndpcwq:1,2016-05-07T05:45:00Z,30.3486,-88.4185,1.37,15.4,1111122 
NERRS,ioos:station:NOAA.NERRS:gndpcwq:1,2016-05-07T06:45:00Z,30.3486,-88.4185,1.42,15.2,1111122 
NERRS,ioos:station:NOAA.NERRS:gndpcwq:1,2016-05-07T07:45:00Z,30.3486,-88.4185,1.44,14.9,1111122 
NERRS,ioos:station:NOAA.NERRS:gndpcwq:1,2016-05-07T08:45:00Z,30.3486,-88.4185,1.47,14.8,1111122 
NERRS,ioos:station:NOAA.NERRS:gndpcwq:1,2016-05-07T09:45:00Z,30.3486,-88.4185,1.51,14.6,1111122 
NERRS,ioos:station:NOAA.NERRS:gndpcwq:1,2016-05-07T10:45:00Z,30.3486,-88.4185,1.57,14.5,1111122 
NERRS,ioos:station:NOAA.NERRS:gndpcwq:1,2016-05-07T11:45:00Z,30.3486,-88.4185,1.64,14.8,1111122 
NERRS,ioos:station:NOAA.NERRS:gndpcwq:1,2016-05-07T12:45:00Z,30.3486,-88.4185,1.73,15.2,1111122 
NERRS,ioos:station:NOAA.NERRS:gndpcwq:1,2016-05-07T13:45:00Z,30.3486,-88.4185,1.78,15.4,1111122 
NERRS,ioos:station:NOAA.NERRS:gndpcwq:1,2016-05-07T14:45:00Z,30.3486,-88.4185,1.79,15.3,1111122 
NERRS,ioos:station:NOAA.NERRS:gndpcwq:1,2016-05-07T15:45:00Z,30.3486,-88.4185,1.76,15.4,1111122 
NERRS,ioos:station:NOAA.NERRS:gndpcwq:1,2016-05-07T16:45:00Z,30.3486,-88.4185,1.72,15.9,1111122 
NERRS,ioos:station:NOAA.NERRS:gndpcwq:1,2016-05-07T17:45:00Z,30.3486,-88.4185,1.67,16.2,1111122 
NERRS,ioos:station:NOAA.NERRS:gndpcwq:1,2016-05-07T18:45:00Z,30.3486,-88.4185,1.61,16.0,1111122 
NERRS,ioos:station:NOAA.NERRS:gndpcwq:1,2016-05-07T19:45:00Z,30.3486,-88.4185,1.51,15.5,1111122 
NERRS,ioos:station:NOAA.NERRS:gndpcwq:1,2016-05-07T20:45:00Z,30.3486,-88.4185,1.39,15.4,1111122 
NERRS,ioos:station:NOAA.NERRS:gndpcwq:1,2016-05-07T21:45:00Z,30.3486,-88.4185,1.29,15.1,1111122 
NERRS,ioos:station:NOAA.NERRS:gndpcwq:1,2016-05-07T22:45:00Z,30.3486,-88.4185,1.23,15.0,1111122 
NERRS,ioos:station:NOAA.NERRS:gndpcwq:1,2016-05-07T23:45:00Z,30.3486,-88.4185,1.21,15.0,1111122 
NERRS,ioos:station:NOAA.NERRS:gndpcwq:1,2016-05-08T00:45:00Z,30.3486,-88.4185,1.2,15.0,1111122 
NERRS,ioos:station:NOAA.NERRS:gndpcwq:1,2016-05-08T01:45:00Z,30.3486,-88.4185,1.21,15.0,1111122 
NERRS,ioos:station:NOAA.NERRS:gndpcwq:1,2016-05-08T02:45:00Z,30.3486,-88.4185,1.21,15.0,1111122 
NERRS,ioos:station:NOAA.NERRS:gndpcwq:1,2016-05-08T03:45:00Z,30.3486,-88.4185,1.25,15.2,1111122 
NERRS,ioos:station:NOAA.NERRS:gndpcwq:1,2016-05-08T04:45:00Z,30.3486,-88.4185,1.31,15.4,1111122 
NERRS,ioos:station:NOAA.NERRS:gndpcwq:1,2016-05-08T05:45:00Z,30.3486,-88.4185,1.37,15.3,1111122 
NERRS,ioos:station:NOAA.NERRS:gndpcwq:1,2016-05-08T06:45:00Z,30.3486,-88.4185,1.43,15.1,1111122 
NERRS,ioos:station:NOAA.NERRS:gndpcwq:1,2016-05-08T07:45:00Z,30.3486,-88.4185,1.45,15.1,1111122 
NERRS,ioos:station:NOAA.NERRS:gndpcwq:1,2016-05-08T08:45:00Z,30.3486,-88.4185,1.47,15.2,1111122 
NERRS,ioos:station:NOAA.NERRS:gndpcwq:1,2016-05-08T09:45:00Z,30.3486,-88.4185,1.49,15.2,1111122 
NERRS,ioos:station:NOAA.NERRS:gndpcwq:1,2016-05-08T10:45:00Z,30.3486,-88.4185,1.54,15.3,1111122 
NERRS,ioos:station:NOAA.NERRS:gndpcwq:1,2016-05-08T11:45:00Z,30.3486,-88.4185,1.61,15.3,1111122 
NERRS,ioos:station:NOAA.NERRS:gndpcwq:1,2016-05-08T12:45:00Z,30.3486,-88.4185,1.69,15.4,1111122 
NERRS,ioos:station:NOAA.NERRS:gndpcwq:1,2016-05-08T13:45:00Z,30.3486,-88.4185,1.76,15.2,1111122 
NERRS,ioos:station:NOAA.NERRS:gndpcwq:1,2016-05-08T14:45:00Z,30.3486,-88.4185,1.76,15.2,1111122 
NERRS,ioos:station:NOAA.NERRS:gndpcwq:1,2016-05-08T15:45:00Z,30.3486,-88.4185,1.76,15.2,1111122 
NERRS,ioos:station:NOAA.NERRS:gndpcwq:1,2016-05-08T16:45:00Z,30.3486,-88.4185,1.72,15.3,1111122 
NERRS,ioos:station:NOAA.NERRS:gndpcwq:1,2016-05-08T17:45:00Z,30.3486,-88.4185,1.68,15.4,1111122 
NERRS,ioos:station:NOAA.NERRS:gndpcwq:1,2016-05-08T18:45:00Z,30.3486,-88.4185,1.64,15.4,1111122 
NERRS,ioos:station:NOAA.NERRS:gndpcwq:1,2016-05-08T19:45:00Z,30.3486,-88.4185,1.55,15.3,1111122 
NERRS,ioos:station:NOAA.NERRS:gndpcwq:1,2016-05-08T20:45:00Z,30.3486,-88.4185,1.44,15.4,1111122 
NERRS,ioos:station:NOAA.NERRS:gndpcwq:1,2016-05-08T21:45:00Z,30.3486,-88.4185,1.33,15.2,1111122 
NERRS,ioos:station:NOAA.NERRS:gndpcwq:1,2016-05-08T22:45:00Z,30.3486,-88.4185,1.27,15.1,1111122 
NERRS,ioos:station:NOAA.NERRS:gndpcwq:1,2016-05-08T23:45:00Z,30.3486,-88.4185,1.22,15.2,1111122 
NERRS,ioos:station:NOAA.NERRS:gndpcwq:1,2016-05-09T00:45:00Z,30.3486,-88.4185,1.18,15.2,1111122 
NERRS,ioos:station:NOAA.NERRS:gndpcwq:1,2016-05-09T01:45:00Z,30.3486,-88.4185,1.17,15.0,1111122 
NERRS,ioos:station:NOAA.NERRS:gndpcwq:1,2016-05-09T02:45:00Z,30.3486,-88.4185,1.18,14.9,1111122 
NERRS,ioos:station:NOAA.NERRS:gndpcwq:1,2016-05-09T03:45:00Z,30.3486,-88.4185,1.23,14.9,1111122 
NERRS,ioos:station:NOAA.NERRS:gndpcwq:1,2016-05-09T04:45:00Z,30.3486,-88.4185,1.29,15.1,1111122 
NERRS,ioos:station:NOAA.NERRS:gndpcwq:1,2016-05-09T05:45:00Z,30.3486,-88.4185,1.36,15.2,1111122 
NERRS,ioos:station:NOAA.NERRS:gndpcwq:1,2016-05-09T06:45:00Z,30.3486,-88.4185,1.45,15.1,1111122 
NERRS,ioos:station:NOAA.NERRS:gndpcwq:1,2016-05-09T07:45:00Z,30.3486,-88.4185,1.53,14.9,1111122 
NERRS,ioos:station:NOAA.NERRS:gndpcwq:1,2016-05-09T08:45:00Z,30.3486,-88.4185,1.6,14.8,1111122 
NERRS,ioos:station:NOAA.NERRS:gndpcwq:1,2016-05-09T09:45:00Z,30.3486,-88.4185,1.66,14.8,1111122 
NERRS,ioos:station:NOAA.NERRS:gndpcwq:1,2016-05-09T10:45:00Z,30.3486,-88.4185,1.69,14.7,1111122 
NERRS,ioos:station:NOAA.NERRS:gndpcwq:1,2016-05-09T11:45:00Z,30.3486,-88.4185,1.74,14.8,1111122 
NERRS,ioos:station:NOAA.NERRS:gndpcwq:1,2016-05-09T12:45:00Z,30.3486,-88.4185,1.78,14.9,1111122 
NERRS,ioos:station:NOAA.NERRS:gndpcwq:1,2016-05-09T13:45:00Z,30.3486,-88.4185,1.82,15.2,1111122 
NERRS,ioos:station:NOAA.NERRS:gndpcwq:1,2016-05-09T14:45:00Z,30.3486,-88.4185,1.85,15.3,1111122 
NERRS,ioos:station:NOAA.NERRS:gndpcwq:1,2016-05-09T15:45:00Z,30.3486,-88.4185,1.87,14.9,1111122 
NERRS,ioos:station:NOAA.NERRS:gndpcwq:1,2016-05-09T16:45:00Z,30.3486,-88.4185,1.87,14.8,1111122 
NERRS,ioos:station:NOAA.NERRS:gndpcwq:1,2016-05-09T17:45:00Z,30.3486,-88.4185,1.84,14.5,1111122 
NERRS,ioos:station:NOAA.NERRS:gndpcwq:1,2016-05-09T18:45:00Z,30.3486,-88.4185,1.8,14.4,1111122 
NERRS,ioos:station:NOAA.NERRS:gndpcwq:1,2016-05-09T19:45:00Z,30.3486,-88.4185,1.72,14.3,1111122 
NERRS,ioos:station:NOAA.NERRS:gndpcwq:1,2016-05-09T20:45:00Z,30.3486,-88.4185,1.62,14.2,1111122 
NERRS,ioos:station:NOAA.NERRS:gndpcwq:1,2016-05-09T21:45:00Z,30.3486,-88.4185,1.51,14.2,1111122 
NERRS,ioos:station:NOAA.NERRS:gndpcwq:1,2016-05-09T22:45:00Z,30.3486,-88.4185,1.44,14.1,1111122 
NERRS,ioos:station:NOAA.NERRS:gndpcwq:1,2016-05-09T23:45:00Z,30.3486,-88.4185,1.36,14.1,1111122 
NERRS,ioos:station:NOAA.NERRS:gndpcwq:1,2016-05-10T00:45:00Z,30.3486,-88.4185,1.29,14.1,1111122 
NERRS,ioos:station:NOAA.NERRS:gndpcwq:1,2016-05-10T01:45:00Z,30.3486,-88.4185,1.3,14.1,1111122 
NERRS,ioos:station:NOAA.NERRS:gndpcwq:1,2016-05-10T02:45:00Z,30.3486,-88.4185,1.26,14.1,1111122 
NERRS,ioos:station:NOAA.NERRS:gndpcwq:1,2016-05-10T03:45:00Z,30.3486,-88.4185,1.25,14.1,1111122 
NERRS,ioos:station:NOAA.NERRS:gndpcwq:1,2016-05-10T04:45:00Z,30.3486,-88.4185,1.25,14.0,1111122 
NERRS,ioos:station:NOAA.NERRS:gndpcwq:1,2016-05-10T05:45:00Z,30.3486,-88.4185,1.3,14.0,1111122 
NERRS,ioos:station:NOAA.NERRS:gndpcwq:1,2016-05-10T06:45:00Z,30.3486,-88.4185,1.39,14.0,1111122 
NERRS,ioos:station:NOAA.NERRS:gndpcwq:1,2016-05-10T12:45:00Z,30.3486,-88.4185,1.79,14.3,1111122 
NERRS,ioos:station:NOAA.NERRS:gndpcwq:1,2016-05-10T14:45:00Z,30.3486,-88.4185,1.92,14.3,1111122 
NERRS,ioos:station:NOAA.NERRS:gndpcwq:1,2016-05-10T15:45:00Z,30.3486,-88.4185,1.97,14.3,1111122 
NERRS,ioos:station:NOAA.NERRS:gndpcwq:1,2016-05-10T16:45:00Z,30.3486,-88.4185,1.98,14.1,1111122 
NERRS,ioos:station:NOAA.NERRS:gndpcwq:1,2016-05-10T17:45:00Z,30.3486,-88.4185,1.96,14.0,1111122 
NERRS,ioos:station:NOAA.NERRS:gndpcwq:1,2016-05-10T18:45:00Z,30.3486,-88.4185,1.93,13.9,1111122 
NERRS,ioos:station:NOAA.NERRS:gndpcwq:1,2016-05-10T19:45:00Z,30.3486,-88.4185,1.87,13.7,1111122 
NERRS,ioos:station:NOAA.NERRS:gndpcwq:1,2016-05-10T20:45:00Z,30.3486,-88.4185,1.79,13.8,1111122 
NERRS,ioos:station:NOAA.NERRS:gndpcwq:1,2016-05-10T21:45:00Z,30.3486,-88.4185,1.72,13.8,1111122 
NERRS,ioos:station:NOAA.NERRS:gndpcwq:1,2016-05-10T22:45:00Z,30.3486,-88.4185,1.62,13.7,1111122 
NERRS,ioos:station:NOAA.NERRS:gndpcwq:1,2016-05-10T23:45:00Z,30.3486,-88.4185,1.53,13.9,1111122 
NERRS,ioos:station:NOAA.NERRS:gndpcwq:1,2016-05-11T00:45:00Z,30.3486,-88.4185,1.42,14.0,1111122 
NERRS,ioos:station:NOAA.NERRS:gndpcwq:1,2016-05-11T01:45:00Z,30.3486,-88.4185,1.34,14.3,1111122 
NERRS,ioos:station:NOAA.NERRS:gndpcwq:1,2016-05-11T02:45:00Z,30.3486,-88.4185,1.31,14.3,1111122 
NERRS,ioos:station:NOAA.NERRS:gndpcwq:1,2016-05-11T03:45:00Z,30.3486,-88.4185,1.27,14.3,1111122 
NERRS,ioos:station:NOAA.NERRS:gndpcwq:1,2016-05-11T04:45:00Z,30.3486,-88.4185,1.27,14.2,1111122 
NERRS,ioos:station:NOAA.NERRS:gndpcwq:1,2016-05-11T05:45:00Z,30.3486,-88.4185,1.31,14.1,1111122 
NERRS,ioos:station:NOAA.NERRS:gndpcwq:1,2016-05-11T06:45:00Z,30.3486,-88.4185,1.35,14.0,1111122 
NERRS,ioos:station:NOAA.NERRS:gndpcwq:1,2016-05-11T07:45:00Z,30.3486,-88.4185,1.41,13.7,1111122 
NERRS,ioos:station:NOAA.NERRS:gndpcwq:1,2016-05-11T08:45:00Z,30.3486,-88.4185,1.46,13.5,1111122 
NERRS,ioos:station:NOAA.NERRS:gndpcwq:1,2016-05-11T09:45:00Z,30.3486,-88.4185,1.5,13.5,1111122 
NERRS,ioos:station:NOAA.NERRS:gndpcwq:1,2016-05-11T10:45:00Z,30.3486,-88.4185,1.56,13.5,1111122 
NERRS,ioos:station:NOAA.NERRS:gndpcwq:1,2016-05-11T11:45:00Z,30.3486,-88.4185,1.62,13.6,1111122 
NERRS,ioos:station:NOAA.NERRS:gndpcwq:1,2016-05-11T12:45:00Z,30.3486,-88.4185,1.66,13.8,1111122 